Location: Newark
(13.9174°N, 1.2431°E)
Time: 08:41:36
(UTC+00:00)

ISS - Visible Passes

Search period start: 14 October 2019 00:00
Search period end: 24 October 2019 00:00
Orbit: 411 x 421 km, 51.6° (Epoch: 14 October)

Date Brightness Start Highest point End Pass type
(mag) Time Alt. Az. Time Alt. Az. Time Alt. Az.
15 Oct -0.7 18:38:27 10° W 18:40:20 14° SW 18:42:13 10° SSW visible
20 Oct -0.8 04:42:23 10° SSE 04:44:43 18° SE 04:47:03 10° E visible
22 Oct -3.8 04:41:54 20° SW 04:44:08 89° SSE 04:47:30 10° NE visible
23 Oct -1.3 03:57:07 23° ENE 03:57:07 23° ENE 03:58:43 10° ENE visible
